Powrót do katalogu

STARLINK DEPLOYMENT RAIL

AktywnySSO
NORAD 47436·DEBRIS·🇺🇸 United States
Ta nazwa satelity nie została jeszcze potwierdzona przez oficjalne źródła.

Wystrzelony Jan 24, 2021 z Cape Canaveral Space Force Station

Loading…

Następne Przeloty (najbliższe 24 godziny)

TLE

ŚwieżeSource: Space-Track

Epoka: Sep 14, 2026, 14:13 UTC

1 47436U 21006Z   26257.59245138  .00004137  00000-0  13275-3 0  9998
2 47436  97.2151 297.5079 0008252 227.7124 132.3420 15.32833399313088

Śledź STARLINK DEPLOYMENT RAIL w czasie rzeczywistym z AllMySat

Download on the App Store